When you browse on this site, cookies collect data to enhance your experience and personalize the content and advertising you see.
Visit our Privacy Policy to learn more. By continuing to use the site, you agree to this use of cookies and data.
  • In Hungary
  • List of Countries
  • For 7 days
  • Water Temperature
  • Weather Map
  • News
  • Weather Widgets
  • user-avatar
    Login

    Hourly Weather Arlamow

    Today, 11 December, Wednesday

    Time Temperature Precipitation Wind Pressure Humidity
    00:00 0°C° 0 mm 1 mps 724 mmHg 92%
    01:00 0°C° 0 mm 1 mps 725 mmHg 93%
    02:00 0°C° 0 mm 1 mps 725 mmHg 94%
    03:00 0°C° 0 mm 1 mps 725 mmHg 93%
    04:00 0°C° 0 mm 1 mps 724 mmHg 91%
    05:00 0°C° 0 mm 1 mps 724 mmHg 90%
    06:00 -2°C° 0 mm 2 mps 724 mmHg 90%
    07:00 -2°C° 0 mm 2 mps 724 mmHg 90%
    08:00 -2°C° 0 mm 2 mps 724 mmHg 89%
    09:00 -2°C° 0 mm 2 mps 724 mmHg 86%
    10:00 -2°C° 0 mm 2 mps 723 mmHg 84%
    11:00 -1°C° 0 mm 2 mps 723 mmHg 81%
    12:00 -1°C° 0 mm 2 mps 723 mmHg 81%
    13:00 -1°C° 0 mm 2 mps 722 mmHg 81%
    14:00 0°C° 0 mm 3 mps 722 mmHg 81%
    15:00 -1°C° 0 mm 3 mps 721 mmHg 86%
    16:00 -1°C° 0 mm 3 mps 720 mmHg 90%
    17:00 -2°C° 0 mm 2 mps 720 mmHg 94%
    18:00 -2°C° 0 mm 2 mps 720 mmHg 94%
    19:00 -2°C° 0 mm 2 mps 719 mmHg 94%
    20:00 -2°C° 0 mm 2 mps 719 mmHg 94%
    21:00 -2°C° 0.1 mm 2 mps 719 mmHg 94%
    22:00 -1°C° 0.1 mm 2 mps 718 mmHg 94%
    23:00 -1°C° 0.1 mm 2 mps 718 mmHg 95%

    Tomorrow, 12 December, Thursday

    Time Temperature Precipitation Wind Pressure Humidity
    00:00 -1°C° 0 mm 2 mps 718 mmHg 92%
    01:00 0°C° 0 mm 3 mps 718 mmHg 90%
    02:00 0°C° 0 mm 3 mps 717 mmHg 87%
    03:00 0°C° 0 mm 3 mps 717 mmHg 88%
    04:00 0°C° 0 mm 3 mps 716 mmHg 89%
    05:00 -1°C° 0 mm 3 mps 716 mmHg 90%
    06:00 -1°C° 0 mm 3 mps 716 mmHg 90%
    07:00 -1°C° 0 mm 3 mps 716 mmHg 91%
    08:00 -1°C° 0 mm 2 mps 716 mmHg 91%
    09:00 +1°C° 0 mm 2 mps 716 mmHg 87%
    10:00 +2°C° 0 mm 2 mps 716 mmHg 83%
    11:00 +3°C° 0 mm 2 mps 716 mmHg 79%
    12:00 +4°C° 0 mm 2 mps 716 mmHg 78%
    13:00 +4°C° 0 mm 2 mps 715 mmHg 76%
    14:00 +5°C° 0 mm 2 mps 715 mmHg 75%
    15:00 +5°C° 0 mm 1 mps 715 mmHg 80%
    16:00 +3°C° 0 mm 1 mps 714 mmHg 85%
    17:00 +2°C° 0 mm 1 mps 713 mmHg 90%
    18:00 +2°C° 0 mm 1 mps 713 mmHg 90%
    19:00 +1°C° 0 mm 2 mps 713 mmHg 90%
    20:00 -1°C° 0 mm 2 mps 713 mmHg 90%
    21:00 -1°C° 0 mm 2 mps 713 mmHg 89%
    22:00 -1°C° 0 mm 2 mps 712 mmHg 89%
    23:00 -1°C° 0 mm 2 mps 712 mmHg 88%

    Day after tomorrow, 13 December, Friday

    Time Temperature Precipitation Wind Pressure Humidity
    00:00 -1°C° 0 mm 2 mps 712 mmHg 88%
    01:00 -1°C° 0 mm 2 mps 711 mmHg 88%
    02:00 -1°C° 0 mm 2 mps 711 mmHg 88%
    03:00 +1°C° 0 mm 2 mps 710 mmHg 88%
    04:00 +1°C° 0 mm 2 mps 709 mmHg 89%
    05:00 +1°C° 0 mm 2 mps 709 mmHg 89%
    06:00 +1°C° 0 mm 2 mps 708 mmHg 89%
    07:00 -1°C° 0 mm 2 mps 708 mmHg 89%
    08:00 -1°C° 0 mm 2 mps 708 mmHg 89%
    09:00 +1°C° 0 mm 2 mps 708 mmHg 86%
    10:00 +2°C° 0 mm 3 mps 707 mmHg 84%
    11:00 +3°C° 0 mm 3 mps 707 mmHg 81%
    12:00 +3°C° 0 mm 3 mps 707 mmHg 81%
    13:00 +3°C° 0 mm 3 mps 706 mmHg 81%
    14:00 +4°C° 0 mm 3 mps 706 mmHg 82%
    15:00 +3°C° 0 mm 3 mps 705 mmHg 84%
    16:00 +3°C° 0 mm 3 mps 705 mmHg 87%
    17:00 +3°C° 0 mm 3 mps 705 mmHg 90%
    18:00 +2°C° 0.2 mm 3 mps 705 mmHg 91%
    19:00 +3°C° 0.2 mm 2 mps 705 mmHg 91%
    20:00 +3°C° 0.2 mm 2 mps 705 mmHg 92%
    21:00 +3°C° 0.3 mm 2 mps 706 mmHg 92%
    22:00 +3°C° 0.3 mm 2 mps 706 mmHg 92%
    23:00 +3°C° 0.3 mm 2 mps 706 mmHg 93%

    14 December, Saturday

    Time Temperature Precipitation Wind Pressure Humidity
    00:00 +3°C° 0.1 mm 2 mps 706 mmHg 92%
    01:00 +3°C° 0.1 mm 2 mps 706 mmHg 92%
    02:00 +3°C° 0.1 mm 2 mps 707 mmHg 92%
    03:00 +2°C° 0 mm 2 mps 707 mmHg 92%
    04:00 +2°C° 0 mm 2 mps 707 mmHg 92%
    05:00 +2°C° 0 mm 2 mps 707 mmHg 92%
    06:00 +2°C° 0 mm 2 mps 708 mmHg 92%
    07:00 +2°C° 0 mm 2 mps 708 mmHg 92%
    08:00 +2°C° 0 mm 1 mps 709 mmHg 92%
    09:00 +3°C° 0 mm 1 mps 709 mmHg 89%
    10:00 +4°C° 0 mm 1 mps 710 mmHg 87%
    11:00 +5°C° 0 mm 1 mps 710 mmHg 85%
    12:00 +6°C° 0 mm 1 mps 711 mmHg 83%
    13:00 +5°C° 0 mm 2 mps 711 mmHg 82%
    14:00 +5°C° 0 mm 2 mps 711 mmHg 81%
    15:00 +5°C° 0 mm 2 mps 711 mmHg 82%
    16:00 +4°C° 0 mm 2 mps 712 mmHg 84%
    17:00 +3°C° 0 mm 3 mps 712 mmHg 86%
    18:00 +1°C° 0 mm 4 mps 712 mmHg 82%
    19:00 +1°C° 0 mm 4 mps 713 mmHg 79%
    20:00 +1°C° 0 mm 5 mps 713 mmHg 75%
    21:00 +1°C° 0 mm 5 mps 714 mmHg 75%
    22:00 +1°C° 0 mm 6 mps 714 mmHg 74%
    23:00 +1°C° 0 mm 6 mps 715 mmHg 74%

    15 December, Sunday

    Time Temperature Precipitation Wind Pressure Humidity
    00:00 +1°C° 0 mm 6 mps 715 mmHg 74%
    01:00 +1°C° 0 mm 6 mps 716 mmHg 74%
    02:00 +1°C° 0 mm 6 mps 716 mmHg 73%
    03:00 -1°C° 0 mm 6 mps 716 mmHg 75%
    04:00 0°C° 0 mm 5 mps 717 mmHg 77%
    05:00 0°C° 0 mm 5 mps 717 mmHg 79%
    06:00 -1°C° 0 mm 6 mps 717 mmHg 78%
    07:00 +1°C° 0 mm 6 mps 717 mmHg 77%
    08:00 0°C° 0 mm 7 mps 717 mmHg 76%
    09:00 +2°C° 0 mm 7 mps 718 mmHg 70%
    10:00 +2°C° 0 mm 8 mps 718 mmHg 65%
    11:00 +4°C° 0 mm 8 mps 719 mmHg 60%
    12:00 +4°C° 0 mm 8 mps 719 mmHg 61%
    13:00 +4°C° 0 mm 8 mps 719 mmHg 62%
    14:00 +4°C° 0 mm 7 mps 719 mmHg 62%
    15:00 +4°C° 0 mm 7 mps 719 mmHg 67%
    16:00 +3°C° 0 mm 7 mps 719 mmHg 72%
    17:00 +3°C° 0 mm 7 mps 719 mmHg 76%
    18:00 +3°C° 0 mm 7 mps 719 mmHg 76%
    19:00 +3°C° 0 mm 7 mps 719 mmHg 75%
    20:00 +3°C° 0 mm 7 mps 719 mmHg 74%
    21:00 +3°C° 0 mm 7 mps 720 mmHg 75%
    22:00 +3°C° 0 mm 7 mps 720 mmHg 76%
    23:00 +3°C° 0 mm 6 mps 721 mmHg 76%

    16 December, Monday

    Time Temperature Precipitation Wind Pressure Humidity
    00:00 +2°C° 0 mm 6 mps 721 mmHg 78%
    01:00 +2°C° 0 mm 5 mps 722 mmHg 80%
    02:00 +2°C° 0 mm 5 mps 722 mmHg 81%
    03:00 +3°C° 0 mm 4 mps 723 mmHg 82%
    04:00 +1°C° 0 mm 4 mps 723 mmHg 83%
    05:00 +2°C° 0 mm 3 mps 724 mmHg 84%
    06:00 +1°C° 0 mm 3 mps 724 mmHg 86%
    07:00 +2°C° 0 mm 2 mps 724 mmHg 88%
    08:00 +1°C° 0 mm 2 mps 724 mmHg 91%
    09:00 +2°C° 0 mm 2 mps 725 mmHg 87%
    10:00 +3°C° 0 mm 2 mps 725 mmHg 84%
    11:00 +4°C° 0 mm 2 mps 725 mmHg 80%
    12:00 +5°C° 0 mm 2 mps 725 mmHg 78%
    13:00 +5°C° 0 mm 3 mps 724 mmHg 76%
    14:00 +6°C° 0 mm 4 mps 724 mmHg 73%
    15:00 +5°C° 0 mm 4 mps 723 mmHg 76%
    16:00 +4°C° 0 mm 4 mps 723 mmHg 79%
    17:00 +4°C° 0 mm 4 mps 723 mmHg 81%
    18:00 +4°C° 0 mm 4 mps 723 mmHg 81%
    19:00 +3°C° 0 mm 5 mps 722 mmHg 81%
    20:00 +3°C° 0 mm 5 mps 722 mmHg 81%
    21:00 +3°C° 0 mm 5 mps 722 mmHg 81%
    22:00 +3°C° 0 mm 5 mps 722 mmHg 80%
    23:00 +3°C° 0 mm 5 mps 722 mmHg 79%
    Show more